Weather observations for the past three days for
Marion - Williamson County Regional Airport
| Date | Time (cdt) | Wind (kph) | Vis. (km) | Weather | Sky Cond. | Temperature (ºC) | Relative Humidity | Wind Chill (°C) | Heat Index (°C) | Pressure | Precipitation (cm) | ||||||
|---|---|---|---|---|---|---|---|---|---|---|---|---|---|---|---|---|---|
| Air | Dwpt | 6 hour | altimeter (cm) | sea level (mb) | 1 hr | 3 hr | 6 hr | ||||||||||
| Max. | Min. | ||||||||||||||||
| 04 | 05:15 | SW 4 | 16.09 | Fair | CLR | 25 | 23 | 89% | 26 | 76.12 | 0.0 | ||||||
| 04 | 04:55 | S 2 | 16.09 | Fair | CLR | 24 | 24 | 100% | 23 | 76.12 | 0.0 | ||||||
| 04 | 04:35 | SW 4 | 16.09 | Fair | CLR | 25 | 23 | 89% | 26 | 76.12 | 0.0 | ||||||
| 04 | 04:15 | S 4 | 16.09 | Fair | CLR | 25 | 23 | 89% | 26 | 76.12 | 0.0 | ||||||
| 04 | 03:55 | S 2 | 16.09 | Fair | CLR | 25 | 23 | 89% | 26 | 76.12 | 0.0 | ||||||
| 04 | 03:35 | Calm | 16.09 | Fair | CLR | 25 | 23 | 89% | 26 | 76.12 | 0.0 | ||||||
| 04 | 03:15 | S 2 | 16.09 | Fair | CLR | 26 | 21 | 74% | 27 | 76.1 | 0.0 | ||||||
| 04 | 02:55 | S 6 | 16.09 | Fair | CLR | 27 | 21 | 70% | 29 | 76.1 | 0.0 | ||||||
| 04 | 02:35 | SW 6 | 16.09 | Fair | CLR | 27 | 21 | 70% | 29 | 76.1 | 0.0 | ||||||
| 04 | 02:13 | S 6 | 16.09 | Fair | CLR | 26 | 21 | 74% | 27 | 76.1 | 0.0 | ||||||
| 04 | 01:55 | S 6 | 16.09 | Fair | CLR | 26 | 22 | 79% | 28 | 76.1 | 0.0 | ||||||
| 04 | 01:35 | SW 4 | 16.09 | Fair | CLR | 27 | 21 | 70% | 29 | 76.12 | 0.0 | ||||||
| 04 | 01:15 | S 2 | 16.09 | Fair | CLR | 27 | 22 | 74% | 29 | 76.12 | 0.0 | ||||||
| 04 | 00:55 | S 2 | 16.09 | Fair | CLR | 26 | 22 | 32.9 | 25.3 | 79% | 28 | 76.12 | 0.0 | ||||
| 04 | 00:35 | Calm | 16.09 | Fair | CLR | 26 | 22 | 79% | 28 | 76.12 | 0.0 | ||||||
| 04 | 00:15 | S 4 | 16.09 | Fair | CLR | 28 | 21 | 66% | 30 | 76.12 | 0.0 | ||||||
| 03 | 23:55 | SW 6 | 16.09 | Fair | CLR | 28 | 21 | 66% | 30 | 76.12 | 0.0 | ||||||
| 03 | 23:35 | SW 7 | 16.09 | Fair | CLR | 27 | 21 | 70% | 29 | 76.12 | 0.0 | ||||||
| 03 | 23:15 | S 7 | 16.09 | Fair | CLR | 27 | 21 | 70% | 29 | 76.12 | 0.0 | ||||||
| 03 | 22:55 | S 4 | 16.09 | Fair | CLR | 28 | 22 | 70% | 31 | 76.12 | 0.0 | ||||||
| 03 | 22:35 | Calm | 16.09 | Fair | CLR | 28 | 21 | 66% | 30 | 76.12 | 0.0 | ||||||
| 03 | 22:15 | SW 2 | 16.09 | Fair | CLR | 29 | 22 | 66% | 32 | 76.15 | 0.0 | ||||||
| 03 | 21:55 | S 2 | 16.09 | Fair | CLR | 27 | 22 | 74% | 29 | 76.15 | 0.0 | ||||||
| 03 | 21:35 | E 2 | 16.09 | Fair | CLR | 27 | 22 | 74% | 29 | 76.12 | 0.0 | ||||||
| 03 | 21:15 | SW 2 | 16.09 | Fair | CLR | 28 | 22 | 70% | 31 | 76.12 | 0.0 | ||||||
| 03 | 20:55 | S 4 | 16.09 | Fair | CLR | 31 | 21 | 55% | 34 | 76.1 | 0.0 | ||||||
| 03 | 20:35 | SW 4 | 16.09 | Fair | CLR | 31 | 21 | 55% | 34 | 76.1 | 0.0 | ||||||
| 03 | 20:15 | SW 6 | 16.09 | Fair | CLR | 30 | 22 | 62% | 33 | 76.07 | 0.0 | ||||||
| 03 | 19:55 | SW 4 | 16.09 | Fair | CLR | 31 | 22 | 59% | 35 | 76.07 | 0.0 | ||||||
| 03 | 19:35 | Vrbl 4 | 16.09 | Fair | CLR | 32 | 22 | 55% | 36 | 76.07 | 0.0 | ||||||
| 03 | 19:15 | S 6 | 16.09 | Fair | CLR | 31 | 22 | 59% | 35 | 76.05 | 0.0 | ||||||
| 03 | 18:45 | S 11 | 16.09 | Fair | CLR | 34 | 22 | 50% | 38 | 76.05 | 0.0 | ||||||
| 03 | 17:45 | S 15 | 16.09 | Fair | CLR | 36 | 21 | 42% | 40 | 76.02 | 0.0 | ||||||
| 03 | 16:45 | SW 19 | 16.09 | Partly Cloudy | SCT060 | 37 | 21 | 39% | 41 | 76.05 | 0.0 | ||||||
| 03 | 15:45 | SW 11 | 16.09 | Mostly Cloudy | BKN052 | 37 | 21 | 39% | 41 | 76.07 | 0.0 | ||||||
| 03 | 14:45 | SW 15 | 16.09 | Mostly Cloudy | BKN050 | 37 | 22 | 42% | 42 | 76.1 | 0.0 | ||||||
| 03 | 13:45 | S 9 | 16.09 | Mostly Cloudy | BKN050 | 36 | 21 | 42% | 40 | 76.15 | 0.0 | ||||||
| 03 | 12:45 | S 11 | 16.09 | Mostly Cloudy | BKN055 | 36 | 22 | 44% | 41 | 76.2 | 0.0 | ||||||
| 03 | 11:47 | S 9 | 16.09 | Fair | CLR | 35 | 23 | 50% | 41 | 76.23 | 0.0 | ||||||
| 03 | 10:47 | W 9 | 16.09 | Fair | CLR | 34 | 22 | 50% | 38 | 76.25 | 0.0 | ||||||
| 03 | 09:47 | SW 9 | 16.09 | Fair | CLR | 32 | 23 | 59% | 37 | 76.28 | 0.0 | ||||||
| 03 | 08:47 | S 7 | 16.09 | Fair | CLR | 29 | 23 | 70% | 33 | 76.28 | 0.0 | ||||||
| 03 | 07:47 | Calm | 16.09 | Fair | CLR | 27 | 23 | 79% | 30 | 76.28 | 0.0 | ||||||
| 03 | 06:47 | SE 9 | 16.09 | Fair | CLR | 24 | 22 | 89% | 24 | 76.25 | 0.0 | ||||||
| 02 | 18:45 | S 15 | 16.09 | Fair | CLR | 33 | 22 | 52% | 37 | 76.15 | 0.0 | ||||||
| 02 | 17:45 | S 19 | 16.09 | A Few Clouds | FEW065 | 35 | 21 | 44% | 38 | 76.15 | 0.0 | ||||||
| 02 | 16:45 | SW 19 | 16.09 | Partly Cloudy | SCT065 | 36 | 21 | 42% | 40 | 76.17 | 0.0 | ||||||
| 02 | 15:45 | S 26 | 16.09 | Partly Cloudy | SCT060 | 37 | 21 | 39% | 41 | 76.2 | 0.0 | ||||||
| 02 | 14:45 | S 22 | 16.09 | Partly Cloudy | SCT040 | 36 | 21 | 42% | 40 | 76.23 | 0.0 | ||||||
| 02 | 13:47 | S 13 | 16.09 | Partly Cloudy | SCT | 36 | 22 | 44% | 41 | 76.28 | 0.0 | ||||||
| 02 | 11:47 | S 7 | 16.09 | Fair | CLR | 34 | 23 | 53% | 39 | 76.35 | 0.0 | ||||||
| 02 | 10:47 | SW 9 | 16.09 | Fair | CLR | 33 | 23 | 56% | 38 | 76.4 | 0.0 | ||||||
| 02 | 09:47 | SW 7 | 16.09 | Fair | CLR | 31 | 23 | 62% | 35 | 76.4 | 0.0 | ||||||
| 02 | 08:47 | SW 7 | 16.09 | Fair | CLR | 29 | 22 | 66% | 32 | 76.4 | 0.0 | ||||||
| 02 | 07:47 | Calm | 16.09 | Fair | CLR | 27 | 22 | 74% | 29 | 76.4 | 0.0 | ||||||
| 02 | 06:45 | Calm | 16.09 | Fair | CLR | 26 | 22 | 79% | 28 | 76.35 | 0.0 | ||||||
| 01 | 18:45 | S 9 | 16.09 | Fair | CLR | 33 | 22 | 52% | 37 | 76.23 | 0.0 | ||||||
| 01 | 17:45 | S 19 | 16.09 | Fair | CLR | 34 | 21 | 47% | 37 | 76.23 | 0.0 | ||||||
| 01 | 16:45 | S 19 | 16.09 | Fair | CLR | 36 | 21 | 42% | 40 | 76.23 | 0.0 | ||||||
| 01 | 15:45 | S 9 | 16.09 | Partly Cloudy | SCT055 | 36 | 21 | 42% | 40 | 76.25 | 0.0 | ||||||
| 01 | 14:45 | SW 9 | 16.09 | Partly Cloudy | SCT055 | 36 | 21 | 42% | 40 | 76.3 | 0.0 | ||||||
| 01 | 13:45 | SW 13 | 16.09 | Fair | CLR | 36 | 21 | 42% | 40 | 76.35 | 0.0 | ||||||
| 01 | 12:45 | W 15 | 16.09 | Fair | CLR | 35 | 21 | 44% | 38 | 76.38 | 0.0 | ||||||
| 01 | 11:45 | W 11 | 16.09 | Fair | CLR | 34 | 22 | 50% | 38 | 76.43 | 0.0 | ||||||
| 01 | 10:45 | W 7 | 16.09 | Fair | CLR | 32 | 23 | 59% | 37 | 76.45 | 0.0 | ||||||
| 01 | 09:45 | SW 11 | 16.09 | Fair | CLR | 31 | 23 | 62% | 35 | 76.43 | 0.0 | ||||||
| 01 | 08:45 | SW 9 | 16.09 | Fair | CLR | 28 | 23 | 74% | 31 | 76.43 | 0.0 | ||||||
| 01 | 07:45 | SE 7 | 16.09 | Fair | CLR | 25 | 23 | 89% | 26 | 76.45 | 0.0 | ||||||
| 01 | 06:45 | SE 7 | 16.09 | Fair | CLR | 23 | 22 | 94% | 76.4 | 0.0 | |||||||
| 01 | 06:35 | Calm | 16.09 | Fair | CLR | 22.7 | 22.4 | 98% | 76.4 | 0.0 | |||||||
| 01 | 06:15 | Calm | 16.09 | Fair | CLR | 22.8 | 22.5 | 98% | 76.38 | 0.0 | |||||||
| 01 | 05:55 | Calm | 16.09 | Fair | CLR | 23 | 22.7 | 98% | 76.38 | 0.0 | |||||||
| 01 | 05:35 | Calm | 16.09 | Fair | CLR | 23 | 22.7 | 98% | 76.38 | 0.0 | |||||||
| Date | Time (cdt) | Wind (kph) | Vis. (km) | Weather | Sky Cond. | Air | Dwpt | Max. | Min. | Relative Humidity | Wind Chill (°C) | Heat Index (°C) | altimeter (cm) | sea level (mb) | 1 hr | 3 hr | 6 hr |
| 6 hour | |||||||||||||||||
| Temperature (ºC) | Pressure | Precipitation (cm) | |||||||||||||||